This is the latest recevied weather packets stored in our database for station/object NR6G-5. If no packets are shown the sender has not sent any weather packets the latest 10 day(s).
| Time | Temp. | Humidity | Pressure | Rain* | Wind** | Luminosity | Snow |
|---|---|---|---|---|---|---|---|
| 1777958848 | 16.11° C | 54% | 1012.4 hPa | 0 mm | - | - | - |
| 1777958548 | 16.67° C | 54% | 1012.4 hPa | 0 mm | - | - | - |
| 1777958250 | 16.67° C | 54% | 1012.4 hPa | 0 mm | - | - | - |
| 1777957951 | 16.67° C | 53% | 1012.5 hPa | 0 mm | - | - | - |
| 1777957647 | 16.11° C | 54% | 1012.4 hPa | 0 mm | - | - | - |
| 1777957348 | 16.11° C | 54% | 1012.4 hPa | 0 mm | - | - | - |
| 1777957051 | 16.11° C | 54% | 1012.3 hPa | 0 mm | - | - | - |
| 1777956750 | 15.56° C | 56% | 1012.3 hPa | 0 mm | - | - | - |
| 1777953712 | 15.56° C | 58% | 1011.9 hPa | 0 mm | - | - | - |
| 1777953413 | 16.11° C | 57% | 1011.9 hPa | 0 mm | - | - | - |
| 1777953112 | 16.11° C | 58% | 1011.8 hPa | 0 mm | - | - | - |
| 1777952812 | 16.11° C | 58% | 1011.7 hPa | 0 mm | - | - | - |
| 1777952512 | 16.11° C | 57% | 1011.7 hPa | 0 mm | - | - | - |
| 1777951913 | 16.11° C | 55% | 1011.4 hPa | 0 mm | - | - | - |
| 1777951612 | 16.11° C | 55% | 1011.4 hPa | 0 mm | - | - | - |
| 1777951313 | 16.11° C | 54% | 1011.4 hPa | 0 mm | - | - | - |
| 1777951013 | 16.67° C | 53% | 1011.4 hPa | 0 mm | - | - | - |
| 1777950713 | 16.67° C | 52% | 1011.3 hPa | 0 mm | - | - | - |
| 1777950413 | 17.22° C | 52% | 1011.3 hPa | 0 mm | - | - | - |
| 1777950113 | 17.22° C | 51% | 1011.2 hPa | 0 mm | - | - | - |
| 1777949812 | 17.78° C | 50% | 1011.2 hPa | 0 mm | - | - | - |
| 1777949512 | 17.78° C | 49% | 1011.2 hPa | 0 mm | - | - | - |
| 1777949212 | 18.33° C | 49% | 1011.2 hPa | 0 mm | - | - | - |
| 1777948912 | 18.33° C | 48% | 1011.2 hPa | 0 mm | - | - | - |
| 1777948613 | 18.33° C | 48% | 1011.3 hPa | 0 mm | - | - | - |
* Rain latest hour (hover to see other rain measurements)
** Current wind speed in m/s (hover to see current wind gust speed)